Location: Clanezzo
(45.7500°N, 9.6000°E)
Time: 09:14:10
(UTC+00:00)

SPROUT - Pass Details

Date: 06 July 2022
Orbit: 588 x 598 km, 97.9° (Epoch: 14 August)

Event Time Altitude Azimuth Distance (km) Brightness Sun altitude
Exits shadow 01:05:54 22° 259° (WSW) 1,305 ? -17.9°
Maximum altitude 01:06:15 22° 266° (W) 1,296 ? -17.9°
Drops below altitude 10° 01:09:32 10° 318° (NW) 1,926 ? -17.6°
Sets 01:12:07 0° 334° (NNW) 2,835 ? -17.5°
